This is the latest recevied weather packets stored in our database for station/object N6OL. If no packets are shown the sender has not sent any weather packets the latest 10 day(s).
| Time | Temp. | Humidity | Pressure | Rain* | Wind** | Luminosity | Snow |
|---|---|---|---|---|---|---|---|
| 1777959624 | 12.78° C | 76% | 1014.9 hPa | 0 mm | - | 0 W/m² | - |
| 1777957224 | 12.78° C | 76% | 1015.5 hPa | 0 mm | - | 0 W/m² | - |
| 1777956603 | 13.33° C | 76% | 1015.6 hPa | 0 mm | - | 0 W/m² | - |
| 1777955703 | 13.33° C | 77% | 1015.6 hPa | 0 mm | - | 0 W/m² | - |
| 1777954824 | 13.33° C | 77% | 1015.1 hPa | 0 mm | - | 0 W/m² | - |
| 1777953903 | 13.33° C | 78% | 1014.8 hPa | 0 mm | - | 0 W/m² | - |
| 1777952124 | 13.89° C | 80% | 1014.5 hPa | 0 mm | - | 0 W/m² | - |
| 1777949724 | 13.89° C | 77% | 1014.2 hPa | 0 mm | - | 0 W/m² | - |
| 1777948503 | 14.44° C | 76% | 1014.3 hPa | 0 mm | - | 11 W/m² | - |
| 1777945203 | 15° C | 70% | 1014.3 hPa | 0 mm | - | 84 W/m² | - |
| 1777944303 | 15.56° C | 68% | 1014.3 hPa | 0 mm | - | 93 W/m² | - |
| 1777944003 | 15.56° C | 68% | 1014.4 hPa | 0 mm | - | 81 W/m² | - |
| 1777943703 | 15.56° C | 67% | 1014.4 hPa | 0 mm | - | 93 W/m² | - |
| 1777943103 | 15.56° C | 66% | 1014.4 hPa | 0 mm | - | 236 W/m² | - |
| 1777942803 | 15.56° C | 67% | 1014.5 hPa | 0 mm | - | 218 W/m² | - |
| 1777941603 | 16.11° C | 66% | 1014.3 hPa | 0 mm | - | 135 W/m² | - |
| 1777941003 | 16.11° C | 65% | 1014.5 hPa | 0 mm | - | 139 W/m² | - |
| 1777938003 | 16.67° C | 59% | 1014.4 hPa | 0 mm | - | 225 W/m² | - |
| 1777937703 | 16.67° C | 59% | 1014.4 hPa | 0 mm | - | 229 W/m² | - |
| 1777937403 | 17.22° C | 58% | 1014.4 hPa | 0 mm | - | 246 W/m² | - |
| 1777937103 | 17.22° C | 57% | 1014.3 hPa | 0 mm | - | 258 W/m² | - |
| 1777935003 | 17.22° C | 58% | 1014.4 hPa | 0 mm | - | 345 W/m² | - |
| 1777934403 | 17.22° C | 58% | 1014.4 hPa | 0 mm | - | 454 W/m² | - |
| 1777930803 | 17.78° C | 55% | 1014.7 hPa | 0 mm | - | 545 W/m² | - |
| 1777930524 | 17.78° C | 57% | 1014.5 hPa | 0 mm | - | 724 W/m² | - |
* Rain latest hour (hover to see other rain measurements)
** Current wind speed in m/s (hover to see current wind gust speed)